This is the latest recevied weather packets stored in our database for station/object K4MUW-4. If no packets are shown the sender has not sent any weather packets the latest 10 day(s).
| Time | Temp. | Humidity | Pressure | Rain* | Wind** | Luminosity | Snow |
|---|---|---|---|---|---|---|---|
| 1778000769 | 23.89° C | 31% | 1012 hPa | 0 mm | 2.24 m/s, 186° | - | - |
| 1778000468 | 23.89° C | 31% | 1012 hPa | 0 mm | 2.24 m/s, 179° | - | - |
| 1778000168 | 23.89° C | 31% | 1012 hPa | 0 mm | 4.02 m/s, 190° | - | - |
| 1777999867 | 23.89° C | 32% | 1012 hPa | 0 mm | 1.79 m/s, 182° | - | - |
| 1777999567 | 23.33° C | 32% | 1012 hPa | 0 mm | 1.79 m/s, 131° | - | - |
| 1777999262 | 23.33° C | 32% | 1012 hPa | 0 mm | 2.68 m/s, 247° | - | - |
| 1777998961 | 23.33° C | 32% | 1012 hPa | 0 mm | 1.79 m/s, 277° | - | - |
| 1777998656 | 23.33° C | 34% | 1012 hPa | 0 mm | 2.68 m/s, 197° | - | - |
| 1777998356 | 22.78° C | 37% | 1012 hPa | 0 mm | 2.24 m/s, 150° | - | - |
| 1777998055 | 22.78° C | 38% | 1012 hPa | 0 mm | 1.79 m/s, 172° | - | - |
| 1777997750 | 22.22° C | 40% | 1012 hPa | 0 mm | 2.24 m/s, 268° | - | - |
| 1777997450 | 22.22° C | 39% | 1012 hPa | 0 mm | 2.24 m/s, 170° | - | - |
| 1777997149 | 22.22° C | 38% | 1012 hPa | 0 mm | 2.24 m/s, 258° | - | - |
| 1777996849 | 21.67° C | 43% | 1012 hPa | 0 mm | 2.24 m/s, 169° | - | - |
| 1777996549 | 21.67° C | 46% | 1012 hPa | 0 mm | 1.34 m/s, 178° | - | - |
| 1777996248 | 21.67° C | 45% | 1012 hPa | 0 mm | 0 m/s | - | - |
| 1777995938 | 21.11° C | 49% | 1013 hPa | 0 mm | 1.34 m/s, 189° | - | - |
| 1777995637 | 21.11° C | 49% | 1013 hPa | 0 mm | 1.34 m/s, 198° | - | - |
| 1777995304 | 20.56° C | 50% | 1013 hPa | 0 mm | 1.79 m/s, 170° | - | - |
| 1777995004 | 20.56° C | 52% | 1013 hPa | 0 mm | 1.79 m/s, 184° | - | - |
| 1777994704 | 20.56° C | 52% | 1013 hPa | 0 mm | 1.34 m/s, 178° | - | - |
| 1777994403 | 20.56° C | 55% | 1013 hPa | 0 mm | 1.79 m/s, 190° | - | - |
| 1777994103 | 20° C | 55% | 1013 hPa | 0 mm | 1.79 m/s, 181° | - | - |
| 1777993802 | 20° C | 57% | 1013 hPa | 0 mm | 1.34 m/s, 189° | - | - |
| 1777993498 | 19.44° C | 59% | 1013 hPa | 0 mm | 1.79 m/s, 168° | - | - |
* Rain latest hour (hover to see other rain measurements)
** Current wind speed in m/s (hover to see current wind gust speed)